Atlantic - Newfoundland: Past 24 Hour Conditions

 

Nickerson Bank - 44251

09:00 PM ADT 23 September 2014Buoy position: 46.45N 53.38W
This table is a summary of hourly weather conditions for the past 24 hours.
Date / Time
(ADT)
Wind(knots) Wave height(m) Wave period(s) Pressure(kPa) Air tempC) Water tempC)
23 September 2014
21:00 WSW 10 gust 12 2.7 12.0 101.8 13 14
20:00 W 12 gust 14 2.7 12.0 101.8 13 14
19:00 W 12 gust 16 2.8 10.0 101.7 13 14
18:00 W 16 gust 19 2.8 13.0 101.6 14 15
17:00 W 16 gust 19 2.7 9.0 101.5 14 15
16:00 WSW 14 gust 18 3.2 10.0 101.5 15 15
15:00 WSW 16 gust 18 3.2 12.0 101.5 15 15
14:00 WSW 18 gust 19 3.5 10.0 101.4 15 15
13:00 WSW 16 gust 18 3.5 10.0 101.4 15 15
12:00 WSW 16 gust 19 3.6 10.0 101.3 15 15
11:00 WSW 16 gust 18 3.8 10.0 101.3 15 14
10:00 WSW 18 gust 19 4.0 10.0 101.3 15 14
9:00 SW 16 gust 19 4.1 10.0 101.2 15 14
8:00 SW 18 gust 21 3.9 10.0 101.1 16 14
7:00 SSW 18 gust 21 3.7 10.0 101.1 16 14
6:00 SSW 18 gust 19 3.3 11.0 101.1 16 14
5:00 S 16 gust 19 3.7 10.0 101.1 16 14
4:00 S 16 gust 18 3.9 11.0 101.1 15 14
3:00 SSW 14 gust 18 4.0 10.0 101.2 15 15
2:00 SSW 16 gust 19 3.9 10.0 101.2 16 15
1:00 SSW 18 gust 19 4.1 10.0 101.2 16 15
0:00 SSW 19 gust 21 4.8 10.0 101.2 16 14
22 September 2014
23:00 SSW 19 gust 23 4.8 10.0 101.2 16 14
22:00 SSW 21 gust 25 4.3 9.0 101.2 16 14
21:00 SSW 23 gust 27 4.6 10.0 101.2 17 14
 
Map of Atlantic - Newfoundland marine weather areas Southwestern Grand Banks - 44138 Banquereau - 44139 Tail of the Bank - 44140 Nickerson Bank - 44251 Northeast Burgeo Bank - 44255 Blanc-Sablon Airport Cap Whittle Chevery Natashquan Airport Heath Point Miscou Island Grand Étang Ingonish Beach North Mountain St.Paul Island J.A. Douglas McCurdy Sydney Airport Charlottetown Airport East Point North Cape Argentia Bonavista Burgeo Cape Race Corner Brook Daniel's Harbour Englee Ferolle Point La Scie Port aux Basques Rocky Harbour Sagona Island St. Anthony Airport St. John's Int'l Airport St. Lawrence Stephenville Airport Twillingate Winterland Wreckhouse Cartwright Airport Mary's Harbour Grates Cove Pool's Island Marticot Island Long Pond Îles de la Madeleine Airport
Legend: buoyBuoy land stationLand Station